Notices

What's New in latest Release from April 7th, 2021:

- Updated Glossary, including Speed of Maximum Gust, and Total Hourly Precipitation

- Updated national and regional climate services offices contacts and prices information

- Addition of station inventory lists for 1981-2010, 1971-2000, and 1961-1990 Normals.

If you haven't already, please take our survey and provide feedback about our website: https://eccc.sondage-survey.ca/f/LanguageSelection.aspx?s=442ca660-fcf1-47c0-95a9-59707d6fd709

Hourly Data Report for August 22, 2017

TORONTO CITY
ONTARIO

43°40'00.000" N
79°24'00.000" W
112.50 m
6158355
71508
XTO

Download Data

Hourly Data (August 2017)
Hourly Data Report for August 22, 2017
TIME
LST
Temp Definition
°C
Dew Point Definition
°C
Rel Hum Definition
%
Precip. Amount Definition
mm

Wind Dir Definition
10's deg

Wind Spd Definition
km/h
Visibility Definition
km
Stn Press Definition
kPa
Hmdx Definition


Wind Chill Definition


Weather Definition


00:00 22.7 18.5 77 0.0 LegendMM LegendMM   100.10 29   LegendNANA
01:00 23.1 18.2 74 0.0 LegendMM LegendMM   99.99 29   LegendNANA
02:00 22.9 18.6 77 0.0 LegendMM LegendMM   99.87 29   LegendNANA
03:00 22.7 19.6 82 0.0 LegendMM LegendMM   99.76 30   LegendNANA
04:00 22.8 20.1 84 0.0 LegendMM LegendMM   99.69 30   LegendNANA
05:00 22.8 20.3 86 0.0 LegendMM LegendMM   99.63 31   LegendNANA
06:00 23.2 20.3 84 0.0 LegendMM LegendMM   99.59 31   LegendNANA
07:00 23.6 20.2 82 0.0 LegendMM LegendMM   99.53 31   LegendNANA
08:00 24.4 20.0 77 0.0 LegendMM LegendMM   99.46 32   LegendNANA
09:00 24.2 19.9 77 0.0 LegendMM LegendMM   99.43 32   LegendNANA
10:00 25.2 20.4 75 0.0 LegendMM LegendMM   99.36 33   LegendNANA
11:00 25.0 19.3 71 0.0 LegendMM LegendMM   99.30 32   LegendNANA
12:00 25.9 19.2 67 0.0 LegendMM LegendMM   99.14 33   LegendNANA
13:00 24.9 19.1 70 0.0 LegendMM LegendMM   99.07 32   LegendNANA
14:00 24.6 19.5 73 0.4 LegendMM LegendMM   99.03 32   LegendNANA
15:00 26.1 17.7 60 0.0 LegendMM LegendMM   99.02 32   LegendNANA
16:00 26.3 17.2 57 0.0 LegendMM LegendMM   99.03 32   LegendNANA
17:00 26.0 15.9 54 0.0 LegendMM LegendMM   99.01 31   LegendNANA
18:00 23.0 15.6 63 0.0 LegendMM LegendMM   99.14 27   LegendNANA
19:00 21.7 12.7 56 0.0 LegendMM LegendMM   99.24     LegendNANA
20:00 20.3 12.5 61 0.0 LegendMM LegendMM   99.37     LegendNANA
21:00 19.2 11.2 60 0.0 LegendMM LegendMM   99.44     LegendNANA
22:00 18.3 11.3 64 0.0 LegendMM LegendMM   99.44     LegendNANA
23:00 18.1 11.5 65 0.0 LegendMM LegendMM   99.47     LegendNANA

Notes on Data Quality.

Legend

  • E = Estimated
  • M = Missing
  • NA = Not Available*
  • [empty] = Indicates an unobserved value
Date modified: